Cumshewa Island, British Columbia

12:45 PM PST on February 27, 2017 (GMT -0800)
Cumshewa Island

Weather History for CWZL - January, 2014

Change the Weather History Date:

Monday, January 13, 2014

  Actual Average (CYZP) Record (CYZP)
Temperature  
Mean Temperature 46 °F -  
Max Temperature 51 °F 40 °F 50 °F (2009)
Min Temperature 42 °F 33 °F 21 °F (2005)
Degree Days  
Heating Degree Days 18    
Moisture  
Dew Point 40 °F    
Average Humidity 79    
Maximum Humidity 95    
Minimum Humidity 66    
Precipitation  
Precipitation 0.00 in - - ()
Sea Level Pressure  
Sea Level Pressure 30.16 in    
Wind  
Wind Speed 11 mph ()    
Max Wind Speed 20 mph    
Max Gust Speed 28 mph    
Averages and records for this station are not official NWS values.
T = Trace of Precipitation, MM = Missing Value Source: Averaged Metar Reports

Daily Weather History Graph

Daily Weather History Graph

Search for Another Location

Airport or City:

Trip Planner

Search our weather history database for the weather conditions in past years. The results will help you decide how hot, cold, wet, or windy it might be!

Date:

Astronomy

Jan. 13, 2014 Rise Set
Actual Time 8:53 AM PST 4:57 PM PST
Civil Twilight 8:13 AM PST 5:37 PM PST
Nautical Twilight 7:29 AM PST 6:21 PM PST
Astronomical Twilight 6:48 AM PST 7:02 PM PST
Moon 3:20 PM PST (1/13) 6:45 AM PST (1/13)
Length of Visible Light 9h 24m
Length of Day
8h 03m
Waxing Gibbous, 95% of the Moon is Illuminated
Jan 13
Waxing Gibbous
Jan 15
Full
Jan 23
Last Quarter
Jan 30
New
Feb 6
First Quarter

Hourly Weather History & Observations

Time (PST) Temp. Windchill Dew Point Humidity Pressure Visibility Wind Dir Wind Speed Gust Speed Precip Events Conditions
12:00 AM 49.3 °F - 42.4 °F 77% 29.82 in - WNW 13.8 mph 20.7 mph N/A   Unknown
1:00 AM 46.9 °F - 37.8 °F 70% 29.89 in - WNW 17.3 mph 27.6 mph N/A   Unknown
2:00 AM 46.0 °F 41.0 °F 37.6 °F 72% 29.94 in - WNW 10.4 mph - N/A   Unknown
3:00 AM 45.7 °F 40.2 °F 37.6 °F 73% 30.00 in - West 11.5 mph - N/A   Unknown
4:00 AM 45 °F - 38 °F 68% 30.04 in - West 12.7 mph - -  
4:00 AM 45.1 °F 39.1 °F 37.8 °F 75% 30.04 in - West 12.7 mph - N/A   Unknown
5:00 AM 45.3 °F 38.1 °F 36.3 °F 71% 30.07 in - West 17.3 mph - N/A   Unknown
6:00 AM 45.0 °F 39.7 °F 35.1 °F 68% 30.13 in - West 10.4 mph - N/A   Unknown
7:00 AM 43.7 °F 41.1 °F 38.3 °F 81% 30.15 in - SSE 4.6 mph - N/A   Unknown
8:00 AM 43.0 °F 40.3 °F 36.3 °F 77% 30.19 in - WSW 4.6 mph - N/A   Unknown
9:00 AM 42.4 °F 39.6 °F 36.9 °F 81% 30.21 in - WSW 4.6 mph - N/A   Unknown
10:00 AM 43 °F - 38 °F 78% 30.25 in - SE 1.2 mph - -  
10:00 AM 43.2 °F - 38.5 °F 84% 30.25 in - SE 1.2 mph - N/A   Unknown
11:00 AM 44.6 °F 43.1 °F 36.9 °F 74% 30.27 in - South 3.5 mph - N/A   Unknown
12:00 PM 45.1 °F 38.8 °F 39.0 °F 79% 30.27 in - South 13.8 mph - N/A   Unknown
1:00 PM 45.0 °F 37.9 °F 39.9 °F 82% 30.26 in - SSE 16.1 mph - N/A   Unknown
2:00 PM 45.1 °F 38.8 °F 40.3 °F 83% 30.26 in - SSE 13.8 mph - N/A   Unknown
3:00 PM 45.5 °F 38.3 °F 40.3 °F 82% 30.25 in - SSE 17.3 mph - N/A   Unknown
4:00 PM 46 °F - 42 °F 83% 30.25 in - SSE 19.6 mph - -  
4:00 PM 45.5 °F 37.8 °F 42.4 °F 89% 30.25 in - SSE 19.6 mph - N/A   Unknown
5:00 PM 45.3 °F 38.1 °F 42.8 °F 91% 30.25 in - SSE 17.3 mph - N/A   Unknown
6:00 PM 45.1 °F 38.4 °F 43.2 °F 93% 30.24 in - SSE 15.0 mph - N/A   Unknown
7:00 PM 45.9 °F 38.8 °F 44.4 °F 95% 30.21 in - SSE 17.3 mph - N/A   Unknown
8:00 PM 46.2 °F 40.1 °F 44.2 °F 93% 30.21 in - SSE 13.8 mph - N/A   Unknown
9:00 PM 48.6 °F - 44.8 °F 87% 30.20 in - SSE 4.6 mph - N/A   Unknown
10:00 PM 51 °F - 43 °F 66% 30.22 in - WSW 10.4 mph - -  
10:00 PM 51.1 °F - 43.0 °F 74% 30.22 in - WSW 10.4 mph - N/A   Unknown
11:00 PM 50.4 °F - 42.8 °F 75% 30.22 in - SW 13.8 mph - N/A   Unknown